| time (UTC) | temp F | wind direction | speed MPH | gust MPH | rain 1hr in | rain 24hr in | rain mn in | humidity % | barometer mb |
| 20260506201538 | 53 | 124 | 2.0 | 6.0 | 0.00 | 0.00 | 0.00 | 50 | 1018.8 |
| 20260506200030 | 53 | 72 | 0.0 | 0.0 | 0.00 | 0.00 | 0.00 | 60 | 1018.8 |
| 20260506194546 | 53 | 69 | 0.0 | 0.0 | 0.00 | 0.00 | 0.00 | 62 | 1018.8 |
| 20260506193041 | 53 | 144 | 0.0 | 0.0 | 0.00 | 0.00 | 0.00 | 62 | 1018.7 |
| 20260506191559 | 53 | 144 | 0.0 | 2.0 | 0.00 | 0.00 | 0.00 | 65 | 1018.7 |
| 20260506190026 | 53 | 71 | 0.0 | 1.0 | 0.00 | 0.00 | 0.00 | 63 | 1018.5 |
| 20260506184557 | 52 | 58 | 0.0 | 2.0 | 0.00 | 0.00 | 0.00 | 63 | 1018.5 |
| 20260506183033 | 53 | 103 | 0.0 | 2.0 | 0.00 | 0.00 | 0.00 | 60 | 1018.5 |
| 20260506181508 | 54 | 105 | 0.0 | 2.0 | 0.00 | 0.00 | 0.00 | 61 | 1018.1 |
| 20260506180041 | 55 | 60 | 0.0 | 2.0 | 0.00 | 0.00 | 0.00 | 58 | 1018.3 |
| 20260506174557 | 56 | 67 | 0.0 | 0.0 | 0.00 | 0.00 | 0.00 | 58 | 1018.2 |
| 20260506173103 | 57 | 22 | 0.0 | 0.0 | 0.00 | 0.00 | 0.00 | 59 | 1018.3 |
| 20260506171511 | 57 | 331 | 0.0 | 2.0 | 0.00 | 0.00 | 0.00 | 65 | 1017.9 |
| 20260506164517 | 59 | 186 | 0.0 | 3.0 | 0.00 | 0.00 | 0.00 | 58 | 1018.0 |
| 20260506163101 | 59 | 167 | 1.0 | 3.0 | 0.00 | 0.00 | 0.00 | 47 | 1017.9 |
| 20260506161519 | 60 | 303 | 0.0 | 2.0 | 0.00 | 0.00 | 0.00 | 45 | 1018.2 |
| 20260506160057 | 60 | 240 | 0.0 | 4.0 | 0.00 | 0.00 | 0.00 | 49 | 1018.2 |
| 20260506154515 | 61 | 211 | 0.0 | 2.0 | 0.00 | 0.00 | 0.00 | 50 | 1018.3 |
| 20260506153015 | 62 | 208 | 1.0 | 4.0 | 0.00 | 0.00 | 0.00 | 42 | 1018.3 |
| 20260506151524 | 62 | 151 | 2.0 | 6.0 | 0.00 | 0.00 | 0.00 | 44 | 1018.0 |
| 20260506150017 | 63 | 284 | 2.0 | 8.0 | 0.00 | 0.00 | 0.00 | 42 | 1018.0 |
| 20260506144550 | 66 | 246 | 1.0 | 5.0 | 0.00 | 0.00 | 0.00 | 30 | 1018.1 |
| 20260506143027 | 66 | 248 | 1.0 | 6.0 | 0.00 | 0.00 | 0.00 | 39 | 1018.1 |
| 20260506141544 | 66 | 273 | 2.0 | 7.0 | 0.00 | 0.00 | 0.00 | 36 | 1018.2 |
| 20260506140020 | 67 | 132 | 3.0 | 9.0 | 0.00 | 0.00 | 0.00 | 34 | 1018.3 |
| 20260506134537 | 66 | 66 | 1.0 | 5.0 | 0.00 | 0.00 | 0.00 | 44 | 1018.3 |
| 20260506133012 | 66 | 119 | 2.0 | 6.0 | 0.00 | 0.00 | 0.00 | 42 | 1018.4 |
| 20260506131537 | 66 | 248 | 1.0 | 5.0 | 0.00 | 0.00 | 0.00 | 47 | 1018.5 |
| 20260506130029 | 66 | 234 | 1.0 | 6.0 | 0.00 | 0.00 | 0.00 | 48 | 1018.6 |
| 20260506124551 | 66 | 186 | 1.0 | 5.0 | 0.00 | 0.00 | 0.00 | 50 | 1018.6 |
| 20260506123028 | 66 | 279 | 2.0 | 7.0 | 0.00 | 0.00 | 0.00 | 46 | 1018.5 |
| 20260506121546 | 66 | 254 | 2.0 | 6.0 | 0.00 | 0.00 | 0.00 | 48 | 1018.7 |
| 20260506120026 | 66 | 176 | 2.0 | 5.0 | 0.00 | 0.00 | 0.00 | 42 | 1018.8 |
| 20260506114550 | 67 | 167 | 2.0 | 5.0 | 0.00 | 0.00 | 0.00 | 38 | 1018.8 |
| 20260506113024 | 66 | 163 | 1.0 | 7.0 | 0.00 | 0.00 | 0.00 | 37 | 1018.7 |
| 20260506111548 | 67 | 144 | 1.0 | 5.0 | 0.00 | 0.00 | 0.00 | 41 | 1018.8 |
| 20260506110020 | 65 | 252 | 0.0 | 6.0 | 0.00 | 0.00 | 0.00 | 41 | 1018.9 |
| 20260506104556 | 67 | 173 | 2.0 | 5.0 | 0.00 | 0.00 | 0.00 | 41 | 1019.0 |
| 20260506103020 | 66 | 229 | 1.0 | 4.0 | 0.00 | 0.00 | 0.00 | 44 | 1019.0 |
| 20260506101526 | 64 | 232 | 1.0 | 7.0 | 0.00 | 0.00 | 0.00 | 46 | 1018.9 |
| 20260506100024 | 64 | 182 | 0.0 | 3.0 | 0.00 | 0.00 | 0.00 | 48 | 1019.1 |
| 20260506094547 | 63 | 254 | 1.0 | 4.0 | 0.00 | 0.00 | 0.00 | 47 | 1019.0 |
| 20260506093016 | 61 | 59 | 2.0 | 7.0 | 0.00 | 0.00 | 0.00 | 34 | 1019.0 |
| 20260506091528 | 60 | 346 | 3.0 | 8.0 | 0.00 | 0.00 | 0.00 | 45 | 1018.9 |
| 20260506090043 | 60 | 229 | 1.0 | 4.0 | 0.00 | 0.00 | 0.00 | 55 | 1018.8 |
| 20260506084555 | 60 | 320 | 2.0 | 8.0 | 0.00 | 0.00 | 0.00 | 52 | 1018.7 |
| 20260506083041 | 61 | 215 | 2.0 | 4.0 | 0.00 | 0.00 | 0.00 | 49 | 1018.6 |
| 20260506081602 | 61 | 252 | 0.0 | 3.0 | 0.00 | 0.00 | 0.00 | 49 | 1018.6 |
| 20260506073024 | 58 | 128 | 2.0 | 7.0 | 0.00 | 0.00 | 0.00 | 52 | 1017.9 |
| 20260506071559 | 58 | 82 | 4.0 | 8.0 | 0.00 | 0.00 | 0.00 | 51 | 1017.9 |
| 20260506061526 | 57 | 121 | 1.0 | 6.0 | 0.00 | 0.00 | 0.00 | 60 | 1018.0 |
| 20260506044511 | 55 | 135 | 2.0 | 9.0 | 0.00 | 0.00 | 0.00 | 63 | 1018.1 |
| 20260506043057 | 54 | 111 | 2.0 | 9.0 | 0.00 | 0.00 | 0.00 | 63 | 1017.5 |
| 20260506041508 | 54 | 96 | 4.0 | 8.0 | 0.00 | 0.00 | 0.00 | 66 | 1017.7 |
| 20260506040001 | 53 | 99 | 2.0 | 9.0 | 0.00 | 0.00 | 0.00 | 70 | 1017.6 |
| 20260506034518 | 53 | 63 | 2.0 | 4.0 | 0.00 | 0.00 | 0.00 | 76 | 1017.6 |
| 20260506033053 | 53 | 217 | 0.0 | 2.0 | 0.00 | 0.00 | 0.00 | 73 | 1017.6 |
| 20260506031517 | 54 | 29 | 0.0 | 4.0 | 0.00 | 0.00 | 0.00 | 68 | 1017.6 |
| 20260506030004 | 53 | 142 | 2.0 | 5.0 | 0.00 | 0.00 | 0.00 | 53 | 1017.5 |
| 20260506024527 | 53 | 118 | 1.0 | 2.0 | 0.00 | 0.00 | 0.00 | 61 | 1017.5 |
| 20260506023024 | 54 | 107 | 0.0 | 3.0 | 0.00 | 0.00 | 0.00 | 69 | 1017.5 |
| 20260506021553 | 54 | 180 | 0.0 | 7.0 | 0.00 | 0.00 | 0.00 | 64 | 1017.7 |
| 20260506020027 | 54 | 149 | 2.0 | 9.0 | 0.00 | 0.00 | 0.00 | 74 | 1017.6 |
| 20260506014551 | 54 | 62 | 4.0 | 9.0 | 0.00 | 0.00 | 0.00 | 85 | 1017.6 |
| 20260506013027 | 53 | 164 | 0.0 | 8.0 | 0.00 | 0.00 | 0.00 | 79 | 1017.7 |
| 20260506011554 | 53 | 128 | 2.0 | 4.0 | 0.00 | 0.00 | 0.00 | 80 | 1018.1 |
| 20260506010024 | 54 | 278 | 0.0 | 3.0 | 0.00 | 0.00 | 0.00 | 74 | 1018.1 |
| 20260506004545 | 54 | 22 | 0.0 | 6.0 | 0.00 | 0.00 | 0.00 | 73 | 1018.0 |
| 20260506003024 | 54 | 168 | 1.0 | 5.0 | 0.00 | 0.00 | 0.00 | 74 | 1018.1 |
| 20260506001555 | 54 | 130 | 1.0 | 5.0 | 0.00 | 0.00 | 0.00 | 75 | 1018.3 |
| 20260506000040 | 54 | 138 | 1.0 | 6.0 | 0.00 | 0.00 | 0.00 | 73 | 1018.3 |
| 20260505234503 | 54 | 127 | 3.0 | 9.0 | 0.00 | 0.00 | 0.00 | 69 | 1018.4 |
| 20260505233040 | 53 | 173 | 0.0 | 4.0 | 0.00 | 0.00 | 0.00 | 70 | 1018.6 |
| 20260505231557 | 53 | 325 | 0.0 | 0.0 | 0.00 | 0.00 | 0.00 | 70 | 1018.8 |
| 20260505230027 | 54 | 330 | 0.0 | 2.0 | 0.00 | 0.00 | 0.00 | 68 | 1018.9 |
| 20260505224553 | 54 | 51 | 0.0 | 3.0 | 0.00 | 0.00 | 0.00 | 65 | 1018.9 |
| 20260505223025 | 54 | 120 | 0.0 | 4.0 | 0.00 | 0.00 | 0.00 | 70 | 1019.0 |
| 20260505221539 | 52 | 155 | 1.0 | 2.0 | 0.00 | 0.00 | 0.00 | 75 | 1019.2 |
| 20260505220015 | 52 | 220 | 0.0 | 0.0 | 0.00 | 0.00 | 0.00 | 70 | 1019.2 |
| 20260505214547 | 52 | 220 | 0.0 | 1.0 | 0.00 | 0.00 | 0.00 | 68 | 1019.2 |
| 20260505213026 | 52 | 259 | 0.0 | 0.0 | 0.00 | 0.00 | 0.00 | 71 | 1019.2 |
| 20260505211552 | 52 | 259 | 0.0 | 0.0 | 0.00 | 0.00 | 0.00 | 73 | 1019.1 |
| 20260505210025 | 52 | 259 | 0.0 | 0.0 | 0.00 | 0.00 | 0.00 | 72 | 1019.1 |
| 20260505204541 | 52 | 259 | 0.0 | 0.0 | 0.00 | 0.00 | 0.00 | 72 | 1019.4 |
| 20260505203041 | 51 | 259 | 0.0 | 0.0 | 0.00 | 0.00 | 0.00 | 70 | 1019.4 |